Temperature
11 10 10 10 10 9 9 9 9 9 9 9 9 9 9 9 9 9 9 8 8 8 8 7 7 6 5 5 5 5 5 5 5 4 4 4 4 4 4 4 4 4 4
10 10 10 9 9 9 9 9 8 8 8 8 9 9 9 8 8 8 8 8 8 8 8 8 7 6 5 5 4 4 4 4 4 4 4 4 3 3 3 3 3 3 3
10 9 9 9 9 9 8 8 8 8 8 8 8 8 8 8 8 8 8 8 8 8 8 7 7 7 6 5 4 4 4 4 4 3 3 3 3 3 3 3 3 3 3
9 9 9 9 9 8 8 8 7 7 7 8 8 8 7 7 8 8 7 8 8 8 7 7 7 7 7 5 5 4 4 3 3 3 3 3 3 2 2 2 2 2 3
9 9 9 8 8 8 7 7 7 7 7 7 7 7 7 7 7 7 7 7 7 7 7 7 7 7 7 6 6 5 4 3 3 3 3 3 2 2 2 2 2 2 2
9 9 8 8 8 7 7 7 7 7 6 6 6 6 6 7 7 7 7 7 7 7 7 7 7 7 7 6 6 5 4 3 3 3 3 2 2 2 2 2 2 2 2
9 9 9 8 8 7 7 7 6 6 6 6 5 5 6 6 6 7 7 7 7 8 7 7 7 7 7 6 6 6 5 4 3 3 2 2 2 2 2 2 2 2 2
9 9 8 8 8 7 7 6 6 6 5 5 5 4 4 4 6 6 7 7 7 7 7 7 7 7 7 6 6 5 5 4 3 2 2 2 2 2 2 1 1 1 1
8 8 8 7 7 7 6 6 6 5 5 5 4 4 3 3 4 4 5 5 5 5 5 6 6 6 6 6 6 6 5 5 4 3 2 2 1 1 1 1 1 1 1
8 8 7 7 7 6 6 6 6 5 5 4 4 4 4 3 2 2 3 4 3 3 4 4 4 4 4 5 5 5 5 4 4 3 2 1 1 1 1 1 1 1 1
8 8 7 7 7 6 6 6 5 5 4 4 4 4 3 3 2 1 0 2 3 3 4 3 3 3 3 3 3 4 4 4 4 3 2 1 1 1 1 1 1 1 1
8 8 7 7 7 6 6 6 5 5 4 4 4 3 3 2 2 2 0 1 2 3 3 3 3 3 2 2 2 2 3 3 3 2 2 1 1 0 0 0 1 1 1
8 7 7 7 7 6 6 6 5 5 4 4 3 3 3 3 2 2 1 0 0 2 2 2 2 2 2 2 2 2 1 1 1 1 1 0 -0 -0 -0 -0 -0 -0 -0
7 7 6 6 6 6 6 5 5 5 4 4 4 3 3 3 2 2 1 1 -1 -1 -0 1 2 2 2 2 1 1 1 0 0 -0 -0 -1 -1 -1 -1 -1 -1 -1 -1
6 6 6 6 6 5 5 5 5 4 4 4 3 3 2 2 2 1 1 0 -1 -3 -2 -0 -0 1 1 1 0 -0 -0 -0 -1 -1 -2 -2 -2 -2 -2 -2 -2 -2 -2
5 5 5 5 5 5 5 4 4 4 3 3 3 2 2 2 1 1 0 -0 -1 -2 -3 -2 -1 -1 -1 -1 -1 -1 -1 -2 -2 -2 -2 -3 -3 -2 -2 -2 -2 -2 -3
5 5 5 5 4 4 4 3 3 3 2 2 2 1 1 1 0 -0 -1 -1 -2 -3 -4 -2 -2 -2 -2 -2 -2 -2 -2 -2 -3 -3 -3 -3 -3 -3 -3 -3 -3 -3 -3
5 4 4 4 4 3 3 3 2 2 1 1 1 0 0 -0 -1 -1 -1 -2 -2 -3 -4 -3 -3 -3 -3 -3 -3 -3 -3 -3 -4 -4 -4 -4 -4 -4 -4 -3 -3 -4 -3
4 4 3 3 3 2 2 1 1 1 0 0 -0 -1 -1 -1 -2 -2 -2 -2 -3 -3 -4 -4 -4 -4 -4 -4 -4 -4 -4 -4 -4 -4 -5 -5 -5 -4 -4 -4 -4 -4 -4
3 3 2 2 1 1 1 0 -0 -0 -0 -1 -1 -1 -2 -2 -2 -2 -2 -3 -3 -3 -4 -5 -5 -5 -5 -5 -5 -5 -5 -5 -5 -5 -5 -6 -5 -5 -5 -5 -4 -4 -4
2 2 1 1 1 0 -0 -1 -1 -1 -1 -2 -2 -2 -2 -2 -2 -3 -3 -3 -3 -4 -4 -5 -6 -6 -6 -6 -6 -5 -6 -5 -5 -6 -6 -6 -6 -6 -5 -5 -5 -5 -5
1 1 0 0 -0 -1 -1 -2 -2 -3 -3 -3 -3 -3 -3 -3 -3 -3 -3 -3 -3 -3 -4 -4 -5 -6 -6 -6 -6 -6 -6 -7 -8 -7 -7 -6 -6 -6 -5 -5 -5 -5 -5
0 -0 -0 -1 -1 -1 -2 -2 -3 -3 -3 -3 -3 -3 -3 -3 -3 -3 -3 -3 -3 -3 -3 -4 -4 -4 -4 -5 -5 -6 -7 -7 -7 -6 -7 -7 -6 -6 -5 -5 -5 -5 -5
-1 -1 -2 -2 -2 -2 -3 -3 -4 -4 -4 -4 -4 -4 -4 -4 -4 -4 -4 -4 -4 -4 -4 -4 -4 -4 -4 -5 -5 -5 -5 -6 -7 -7 -7 -7 -6 -6 -6 -6 -5 -5 -5
-2 -2 -3 -3 -3 -3 -3 -4 -4 -4 -4 -4 -4 -4 -4 -4 -4 -4 -5 -5 -5 -5 -5 -5 -5 -5 -5 -5 -5 -6 -6 -7 -8 -7 -7 -7 -6 -6 -6 -6 -5 -5 -6
-3 -3 -3 -3 -4 -4 -4 -5 -5 -5 -4 -4 -4 -4 -4 -4 -4 -4 -5 -5 -5 -5 -5 -5 -5 -5 -5 -5 -6 -6 -6 -7 -7 -7 -7 -7 -7 -7 -7 -6 -6 -5 -6
Wind_Speed
11 10 10 10 10 9 8 8 8 8 9 10 11 12 13 15 16 16 17 16 16 16 16 15 15 14 14 13 12 11 11 10 10 9 9 8 8 8 8 8 7 7 8
15 13 12 12 13 14 13 12 11 10 10 11 12 14 16 17 18 19 20 19 19 19 19 19 18 18 17 16 15 14 14 13 12 11 11 10 10 10 9 9 9 9 9
18 16 12 12 16 18 16 14 12 10 9 9 10 14 16 17 19 20 21 21 22 21 22 22 22 21 20 20 19 18 17 16 15 14 13 13 12 12 11 11 10 10 10
20 17 13 13 17 17 15 11 8 5 7 7 8 8 12 14 17 20 21 22 22 21 23 25 25 24 24 23 22 21 20 18 17 17 16 15 14 14 13 13 13 12 12
20 18 15 15 16 13 12 10 7 6 8 9 9 8 9 11 15 18 19 21 23 24 24 26 28 28 27 26 25 24 23 21 20 19 18 17 16 16 16 15 15 14 14
20 19 16 15 14 8 8 8 9 8 7 8 9 10 9 9 11 13 18 21 23 25 26 26 26 26 29 28 27 26 25 24 23 22 21 19 19 18 18 17 16 16 16
19 18 15 12 12 9 12 11 8 8 8 4 4 7 8 12 15 14 15 16 19 24 25 25 24 23 24 28 29 29 28 27 26 24 23 22 21 20 19 19 19 18 17
19 18 15 11 10 9 10 10 9 6 6 6 6 4 6 6 7 12 11 12 13 15 17 22 23 23 23 23 26 30 29 29 28 26 25 24 23 22 21 21 20 20 19
18 19 18 15 11 10 12 13 13 11 10 7 9 7 6 7 5 5 7 9 10 9 10 15 19 23 24 24 25 29 32 31 30 29 27 26 24 24 23 23 22 22 21
17 19 19 17 12 10 13 13 13 12 11 11 7 11 12 7 6 6 4 5 7 9 11 11 15 20 24 24 25 28 30 32 32 31 29 28 26 26 25 24 24 23 23
12 15 16 14 12 10 13 13 12 13 12 13 10 7 11 11 10 10 13 8 6 8 11 12 11 15 20 22 23 27 31 31 32 32 31 30 28 27 26 26 25 24 23
6 10 13 12 11 10 13 14 13 13 14 15 13 11 9 8 9 12 17 13 12 8 10 11 11 12 18 20 24 28 31 32 32 32 31 30 29 28 27 27 25 25 24
5 8 7 8 9 10 12 11 12 14 15 16 16 15 14 15 10 10 15 16 12 7 7 8 11 13 17 20 22 29 31 32 32 33 32 31 30 29 28 27 26 25 25
7 8 6 8 9 10 11 10 11 14 13 15 18 17 15 15 14 15 13 13 14 12 9 10 6 11 15 19 23 29 25 31 33 33 33 32 31 30 29 28 27 26 25
7 8 7 9 9 9 11 11 11 14 13 14 16 17 16 15 14 14 14 14 14 15 15 9 9 10 14 18 24 22 22 28 31 32 33 33 32 31 30 29 27 27 26
8 9 9 9 9 10 10 11 11 13 14 14 13 15 17 15 14 13 14 14 15 16 16 7 9 7 10 12 22 22 21 28 31 31 32 32 31 31 30 29 28 28 27
9 9 10 10 10 11 10 10 12 12 14 15 14 15 18 15 15 14 13 14 16 16 21 17 8 8 12 12 12 15 19 20 20 29 30 31 31 30 30 29 29 28 28
9 10 10 10 11 12 11 11 14 13 14 16 15 15 17 14 17 15 14 16 16 16 19 23 11 8 13 12 11 10 10 15 16 26 29 29 30 30 30 30 29 28 28
10 10 10 11 12 12 12 12 13 14 15 15 15 15 16 15 18 15 16 16 15 16 16 19 17 9 9 8 9 10 12 10 12 20 26 28 29 30 30 30 29 29 29
11 12 12 12 13 13 13 13 13 15 15 15 15 15 16 16 18 18 16 17 15 16 15 17 16 10 9 7 8 10 11 10 11 12 17 21 24 28 29 30 29 29 28
12 12 13 14 13 12 12 13 13 14 15 15 15 15 17 20 23 20 16 14 15 15 15 15 16 12 11 7 9 9 13 9 10 10 9 11 11 11 12 22 26 27 27
12 12 13 14 15 13 22 27 22 14 13 14 15 14 15 19 23 28 30 27 22 18 17 16 15 16 13 13 11 11 11 10 10 8 10 12 10 11 10 11 22 25 26
13 13 13 14 16 18 27 29 29 20 15 13 13 13 12 13 19 14 20 26 25 28 26 19 19 17 14 14 14 14 13 10 11 7 8 10 9 11 10 15 23 25 26
13 14 14 15 16 19 28 30 29 19 14 13 13 13 14 13 13 14 13 14 15 16 18 15 14 15 14 12 14 15 13 12 8 7 8 7 7 10 10 9 21 24 25
15 14 14 15 17 20 27 29 28 13 12 13 13 13 14 13 19 23 15 14 15 14 19 24 22 18 22 24 19 12 12 10 10 9 10 7 5 7 8 9 14 23 24
16 15 15 14 16 18 25 28 27 12 12 12 11 11 18 18 20 22 14 13 15 12 10 10 13 14 13 17 24 17 13 11 6 7 9 9 6 5 5 6 9 9 13
Wind_Direction
193 200 208 217 227 234 237 241 245 249 254 256 256 254 253 253 254 256 259 263 269 272 273 273 273 271 269 268 268 268 270 272 274 278 281 284 288 292 295 299 304 308 309
200 201 208 216 223 227 231 233 238 244 251 255 257 255 255 256 257 257 258 260 263 267 269 270 270 270 268 267 266 265 265 266 268 270 273 275 277 280 283 287 291 295 298
206 205 209 217 224 226 227 230 236 242 250 251 253 255 256 256 255 256 257 257 258 260 263 265 266 267 266 265 265 264 263 263 264 266 267 268 270 272 275 279 281 287 290
211 208 214 224 226 223 220 220 223 228 240 243 251 253 252 253 253 254 254 253 252 252 255 258 261 262 263 263 262 262 261 260 260 261 262 263 265 268 270 273 275 278 281
214 212 221 228 222 217 218 226 218 216 235 244 249 252 249 250 252 254 251 249 248 247 247 252 255 256 257 259 259 260 259 258 257 258 259 260 261 264 265 268 270 272 274
218 218 228 229 216 211 221 223 231 222 230 243 259 263 255 248 248 247 249 250 247 244 243 243 245 249 252 254 255 257 257 257 256 255 256 257 258 260 262 264 266 267 269
220 219 230 226 214 220 229 224 224 231 238 223 258 280 267 248 246 246 243 244 245 243 241 239 239 240 245 250 252 253 254 254 254 254 254 255 256 257 259 260 261 263 264
225 226 228 230 219 224 230 225 215 222 228 191 198 253 296 297 250 241 238 238 242 241 239 240 237 237 238 240 244 249 251 253 254 254 253 253 254 255 257 258 259 260 260
230 230 230 230 225 221 232 230 221 221 234 217 202 205 235 254 298 262 237 235 235 233 236 239 237 237 237 237 239 244 246 248 250 251 252 252 252 253 255 255 257 257 258
232 232 233 232 230 227 233 234 226 224 226 235 217 223 232 225 247 291 259 246 240 234 233 234 236 236 236 235 237 240 242 244 246 248 249 250 250 252 253 253 254 255 256
238 237 235 235 235 233 235 237 231 224 224 233 227 216 233 242 236 249 270 261 244 231 230 230 231 233 234 233 234 237 241 241 242 244 245 247 249 251 252 254 255 256 257
250 242 239 238 239 238 239 239 237 231 231 233 235 227 219 219 221 229 251 261 262 244 225 226 226 227 231 231 232 237 240 241 241 242 243 244 247 249 252 254 256 258 258
271 257 240 238 240 241 242 240 238 238 236 235 236 237 235 236 229 230 245 259 261 257 233 227 222 223 227 229 232 240 242 242 241 241 242 242 244 247 249 252 255 257 258
272 270 252 243 244 244 245 241 240 242 241 239 240 238 240 240 235 233 238 250 266 267 244 236 219 220 225 227 230 238 241 243 243 242 241 241 242 244 246 249 252 254 257
275 274 266 260 254 248 247 244 244 244 243 241 242 241 242 243 239 237 236 233 243 265 268 229 215 217 220 225 232 235 233 239 243 244 242 242 242 243 245 247 249 251 253
282 283 279 271 265 259 253 248 249 249 246 245 243 243 243 244 243 239 237 235 232 242 262 245 214 203 212 224 231 233 231 239 244 245 244 243 242 243 244 245 247 250 252
289 284 281 278 274 270 263 257 255 253 251 252 247 245 246 242 244 242 238 237 236 235 251 260 220 207 208 221 233 230 227 232 238 243 244 243 243 244 244 245 247 249 251
288 283 281 279 277 274 268 263 265 261 256 256 252 249 250 248 244 243 241 239 238 234 241 257 250 214 219 219 224 226 227 229 228 239 244 246 246 246 246 246 246 249 251
291 288 284 281 279 276 272 268 266 266 262 259 256 251 252 248 249 246 241 241 240 239 238 249 255 228 224 219 223 231 233 229 226 235 242 246 248 248 248 247 247 248 250
291 289 286 283 280 277 274 272 269 268 266 262 257 254 253 248 249 248 246 243 240 240 239 243 251 242 227 209 213 224 233 227 230 230 238 243 248 249 249 249 248 249 251
288 286 287 287 283 280 276 273 270 266 264 264 260 254 252 252 252 252 248 244 238 239 238 241 246 244 232 211 215 215 230 228 227 223 229 238 243 245 247 250 250 251 252
290 287 287 288 288 287 290 293 292 280 270 266 265 260 255 259 262 264 262 255 241 234 233 234 238 237 231 221 217 217 223 225 233 210 220 232 227 235 236 236 245 249 252
291 290 288 287 288 289 295 296 295 292 283 278 273 270 268 263 266 256 263 267 264 254 242 232 234 233 227 217 214 217 217 216 223 196 196 228 222 231 231 235 241 244 247
293 292 293 292 291 293 298 300 300 296 287 281 276 272 271 268 262 262 255 254 255 258 257 250 239 233 225 217 211 213 215 220 224 209 196 223 219 227 229 227 241 245 248
298 295 294 294 294 296 299 301 299 290 285 281 276 270 270 267 270 272 265 257 255 253 258 257 253 243 230 224 214 210 211 214 222 219 204 214 222 225 229 232 238 245 250
298 299 298 294 292 293 297 301 300 291 288 286 279 269 272 273 274 273 264 258 257 253 242 248 255 258 246 232 224 210 205 209 207 212 196 201 209 201 235 232 229 235 246
Height
1561 1563 1563 1564 1564 1565 1565 1565 1565 1564 1564 1563 1562 1562 1562 1561 1561 1560 1559 1558 1558 1557 1556 1555 1555 1554 1554 1553 1552 1551 1550 1550 1549 1548 1547 1547 1546 1545 1545 1544 1544 1543 1543
1558 1559 1560 1560 1561 1561 1561 1561 1561 1560 1559 1559 1558 1558 1557 1557 1556 1556 1555 1554 1554 1553 1552 1551 1551 1551 1550 1550 1549 1548 1547 1546 1545 1545 1544 1543 1543 1542 1542 1541 1541 1540 1540
1553 1554 1555 1556 1556 1557 1557 1556 1556 1555 1554 1553 1552 1552 1552 1551 1550 1550 1549 1549 1548 1548 1547 1546 1546 1546 1545 1545 1545 1544 1543 1542 1542 1541 1540 1539 1539 1538 1538 1538 1537 1537 1536
1549 1549 1550 1550 1551 1552 1551 1550 1550 1549 1548 1547 1546 1546 1545 1544 1543 1543 1542 1541 1541 1541 1541 1540 1540 1539 1539 1539 1539 1539 1539 1538 1537 1536 1535 1535 1535 1534 1534 1533 1533 1533 1532
1544 1544 1544 1544 1545 1545 1545 1544 1543 1542 1541 1540 1539 1537 1536 1535 1534 1534 1533 1533 1532 1533 1533 1533 1533 1532 1532 1532 1532 1532 1532 1532 1531 1531 1530 1530 1529 1529 1529 1529 1528 1528 1528
1538 1538 1538 1538 1538 1538 1537 1537 1536 1535 1534 1533 1531 1527 1526 1525 1524 1523 1522 1522 1522 1523 1523 1523 1524 1524 1524 1524 1524 1524 1525 1525 1525 1525 1524 1524 1524 1523 1523 1523 1523 1523 1523
1532 1531 1531 1531 1530 1529 1529 1529 1528 1527 1525 1526 1522 1517 1515 1514 1511 1510 1511 1511 1511 1512 1512 1512 1512 1513 1513 1514 1515 1515 1516 1517 1517 1517 1517 1517 1517 1517 1517 1517 1517 1517 1517
1525 1524 1524 1523 1522 1521 1521 1520 1520 1518 1517 1518 1516 1512 1505 1500 1498 1499 1499 1498 1499 1500 1500 1500 1500 1501 1502 1503 1504 1505 1506 1506 1508 1509 1509 1510 1510 1510 1510 1510 1510 1511 1511
1519 1518 1516 1515 1514 1513 1511 1511 1511 1509 1508 1508 1508 1507 1502 1492 1490 1487 1487 1488 1488 1489 1490 1490 1490 1491 1491 1492 1493 1494 1494 1495 1497 1498 1500 1501 1501 1502 1502 1503 1503 1504 1504
1512 1511 1509 1508 1506 1504 1503 1502 1501 1500 1499 1497 1496 1495 1494 1491 1488 1479 1476 1477 1477 1477 1479 1480 1480 1481 1481 1481 1482 1483 1483 1484 1485 1487 1489 1491 1492 1493 1494 1495 1495 1496 1497
1506 1504 1502 1500 1498 1496 1494 1493 1492 1490 1488 1487 1486 1484 1483 1481 1478 1475 1465 1464 1465 1464 1466 1467 1467 1468 1469 1469 1470 1471 1472 1473 1474 1476 1478 1480 1482 1484 1485 1486 1487 1488 1489
1502 1499 1497 1494 1492 1489 1487 1485 1483 1481 1479 1477 1476 1474 1472 1470 1467 1465 1459 1453 1452 1451 1453 1452 1453 1455 1457 1458 1458 1460 1460 1461 1462 1464 1466 1468 1471 1473 1475 1477 1478 1479 1480
1496 1494 1491 1488 1486 1483 1480 1478 1475 1472 1470 1467 1465 1463 1460 1458 1457 1455 1452 1445 1441 1439 1439 1437 1438 1441 1443 1445 1446 1447 1448 1449 1450 1452 1455 1457 1459 1461 1463 1465 1467 1469 1470
1491 1488 1485 1482 1479 1476 1473 1470 1466 1463 1460 1457 1454 1452 1449 1446 1446 1443 1441 1439 1433 1427 1425 1423 1426 1428 1430 1432 1433 1435 1435 1437 1438 1440 1443 1445 1448 1450 1452 1454 1456 1458 1460
1485 1482 1479 1476 1472 1469 1465 1461 1457 1454 1450 1447 1443 1441 1438 1435 1434 1431 1430 1429 1428 1419 1410 1410 1414 1415 1418 1420 1421 1422 1422 1424 1426 1428 1431 1434 1436 1439 1441 1443 1445 1447 1449
1479 1476 1472 1468 1464 1461 1457 1452 1447 1444 1440 1435 1432 1429 1425 1423 1421 1419 1418 1416 1415 1411 1402 1395 1400 1404 1407 1408 1410 1410 1411 1413 1414 1416 1419 1422 1425 1427 1430 1432 1434 1436 1438
1472 1468 1464 1459 1455 1451 1447 1442 1437 1433 1428 1424 1421 1417 1413 1411 1409 1406 1405 1403 1402 1400 1393 1384 1389 1392 1395 1397 1398 1399 1400 1401 1402 1405 1407 1411 1413 1416 1419 1421 1423 1425 1427
1464 1460 1454 1449 1445 1440 1436 1431 1425 1421 1416 1411 1408 1405 1401 1399 1396 1394 1392 1390 1388 1387 1385 1377 1377 1380 1382 1385 1387 1388 1389 1390 1391 1393 1396 1399 1402 1405 1407 1410 1412 1414 1416
1455 1450 1445 1439 1434 1429 1424 1419 1414 1409 1404 1399 1396 1392 1389 1387 1384 1382 1380 1377 1376 1375 1374 1370 1366 1369 1371 1373 1375 1376 1378 1379 1380 1382 1385 1388 1390 1393 1396 1398 1401 1403 1405
1445 1440 1434 1428 1423 1417 1412 1407 1402 1396 1391 1387 1384 1381 1378 1375 1372 1370 1368 1365 1364 1363 1362 1360 1357 1358 1360 1361 1364 1364 1365 1367 1368 1371 1373 1376 1378 1381 1384 1387 1390 1393 1395
1436 1430 1424 1417 1412 1406 1401 1396 1390 1384 1379 1375 1372 1369 1367 1364 1361 1359 1356 1353 1353 1352 1351 1350 1348 1349 1349 1351 1350 1353 1355 1356 1357 1360 1362 1365 1367 1369 1372 1375 1379 1381 1384
1426 1420 1413 1407 1401 1395 1391 1386 1381 1374 1369 1364 1361 1358 1355 1353 1350 1348 1346 1344 1343 1340 1339 1338 1337 1337 1337 1340 1342 1344 1345 1347 1348 1350 1352 1354 1357 1358 1361 1365 1368 1371 1373
1416 1409 1403 1397 1390 1384 1380 1374 1370 1365 1360 1355 1351 1348 1344 1342 1339 1336 1334 1333 1332 1331 1330 1328 1325 1325 1328 1331 1333 1335 1336 1337 1338 1342 1344 1345 1348 1348 1352 1355 1358 1361 1363
1406 1399 1392 1386 1379 1373 1369 1364 1359 1355 1350 1346 1342 1339 1335 1331 1329 1326 1323 1321 1319 1319 1319 1319 1317 1316 1319 1322 1324 1326 1328 1330 1332 1335 1336 1337 1339 1341 1344 1346 1349 1351 1353
1396 1390 1383 1376 1369 1363 1359 1354 1350 1344 1340 1336 1333 1330 1326 1323 1320 1318 1315 1312 1309 1308 1309 1309 1309 1310 1311 1313 1315 1318 1320 1322 1323 1325 1328 1330 1331 1334 1336 1337 1340 1342 1343
1388 1381 1373 1367 1361 1354 1350 1346 1342 1337 1332 1328 1324 1321 1319 1315 1312 1310 1307 1304 1301 1300 1300 1300 1301 1302 1303 1304 1307 1308 1310 1313 1315 1318 1320 1323 1324 1327 1327 1327 1330 1332 1333